Mountain Home, ID

9:04 AM MDT on April 24, 2017 (GMT -0600)
Mountain Home Air Force Base

Weather History for KMUO - May, 2014

Change the Weather History Date:

Saturday, May 10, 2014

  Actual Average Record
Temperature  
Mean Temperature 48 °F 57 °F  
Max Temperature 56 °F 70 °F 94 °F (1940)
Min Temperature 40 °F 42 °F 15 °F (1916)
Degree Days  
Heating Degree Days 17 10  
Month to date heating degree days 71 110  
Cooling Degree Days 0 1  
Month to date cooling degree days 0 7  
Moisture  
Dew Point 38 °F    
Average Humidity 80    
Maximum Humidity 100    
Minimum Humidity 32    
Precipitation  
Precipitation T in 0.04 in 0.96 in (2005)
Month to date precipitation 0.23 0.44  
Sea Level Pressure  
Sea Level Pressure 29.98 in    
Wind  
Wind Speed 12 mph (WNW)    
Max Wind Speed 25 mph    
Max Gust Speed 36 mph    
Visibility 10 miles    
Events Rain    
T = Trace of Precipitation, MM = Missing Value Source: NWS Daily Summary

Daily Weather History Graph

Daily Weather History Graph

Search for Another Location

Airport or City:

Trip Planner

Search our weather history database for the weather conditions in past years. The results will help you decide how hot, cold, wet, or windy it might be!

Date:

Astronomy

May. 10, 2014 Rise Set
Actual Time 6:25 AM MDT 8:54 PM MDT
Civil Twilight 5:53 AM MDT 9:27 PM MDT
Nautical Twilight 5:13 AM MDT 10:07 PM MDT
Astronomical Twilight 4:28 AM MDT 10:52 PM MDT
Moon 4:48 PM MDT (5/10) 4:07 AM MDT (5/10)
Length of Visible Light 15h 33m
Length of Day
14h 29m
Waxing Gibbous, 82% of the Moon is Illuminated
May 10
Waxing Gibbous
May 14
Full
May 21
Last Quarter
May 28
New
Jun 5
First Quarter

Hourly Weather History & Observations

Time (MDT) Temp. Windchill Dew Point Humidity Pressure Visibility Wind Dir Wind Speed Gust Speed Precip Events Conditions
12:23 AM 46.4 °F 42.9 °F 46.4 °F 100% 29.96 in 10.0 mi WNW 6.9 mph - N/A Rain Light Rain
12:28 AM 46.4 °F 42.9 °F 46.4 °F 100% 29.95 in 10.0 mi NW 6.9 mph - N/A Rain Light Rain
12:33 AM 46.4 °F 42.4 °F 46.4 °F 100% 29.96 in 10.0 mi West 8.1 mph - N/A   Light Drizzle
12:43 AM 44.6 °F 40.7 °F 44.6 °F 100% 29.96 in 10.0 mi WSW 6.9 mph - N/A   Mostly Cloudy
12:58 AM 44.4 °F 40.5 °F 44.4 °F 100% 29.97 in 10.0 mi West 6.9 mph - 0.00 in   Mostly Cloudy
1:08 AM 44.6 °F 41.4 °F 44.6 °F 100% 29.96 in 10.0 mi WSW 5.8 mph - N/A   Mostly Cloudy
1:53 AM 44.6 °F 38.4 °F 44.6 °F 100% 29.97 in 10.0 mi WNW 12.7 mph - N/A   Mostly Cloudy
1:58 AM 45.0 °F 37.9 °F 45.0 °F 100% 29.96 in 10.0 mi NW 16.1 mph - N/A   Mostly Cloudy
2:58 AM 43.5 °F 37.5 °F 43.5 °F 100% 29.96 in 10.0 mi WNW 11.5 mph - 0.00 in Rain Light Rain
3:18 AM 42.8 °F 36.6 °F 42.8 °F 100% 29.97 in 10.0 mi West 11.5 mph - N/A   Light Drizzle
3:28 AM 42.8 °F 38.0 °F 42.8 °F 100% 29.97 in 10.0 mi West 8.1 mph - N/A   Mostly Cloudy
3:58 AM 41.7 °F 35.6 °F 41.7 °F 100% 29.98 in 10.0 mi West 10.4 mph - 0.00 in   Overcast
4:13 AM 42.8 °F 36.6 °F 42.8 °F 100% 29.98 in 10.0 mi West 11.5 mph - N/A   Mostly Cloudy
4:58 AM 39.9 °F 33.9 °F 39.9 °F 100% 29.99 in 10.0 mi WNW 9.2 mph - N/A   Partly Cloudy
5:08 AM 41.0 °F 34.3 °F 41.0 °F 100% 29.99 in 10.0 mi WNW 11.5 mph - N/A   Mostly Cloudy
5:18 AM 41.0 °F 34.3 °F 41.0 °F 100% 29.98 in 10.0 mi West 11.5 mph - N/A   Mostly Cloudy
5:23 AM 41.0 °F 33.5 °F 41.0 °F 100% 29.98 in 10.0 mi West 13.8 mph - N/A   Overcast
5:43 AM 41.0 °F 34.3 °F 41.0 °F 100% 29.97 in 10.0 mi West 11.5 mph - N/A   Light Drizzle
5:48 AM 41.0 °F 34.7 °F 41.0 °F 100% 29.97 in 10.0 mi West 10.4 mph - N/A   Light Drizzle
5:58 AM 42.1 °F 35.7 °F 40.8 °F 95% 29.96 in 10.0 mi West 11.5 mph - 0.00 in   Mostly Cloudy
6:33 AM 41.0 °F 35.8 °F 41.0 °F 100% 29.98 in 10.0 mi WNW 8.1 mph - N/A   Overcast
6:58 AM 39.7 °F 34.3 °F 39.7 °F 100% 29.99 in 10.0 mi West 8.1 mph - N/A   Overcast
7:58 AM 41.4 °F 36.8 °F 41.2 °F 99% 29.99 in 10.0 mi WNW 6.9 mph - N/A   Mostly Cloudy
8:03 AM 42.8 °F 38.6 °F 42.8 °F 100% 29.99 in 10.0 mi WNW 6.9 mph - N/A   Scattered Clouds
8:23 AM 44.6 °F 40.2 °F 41.0 °F 87% 29.99 in 10.0 mi NW 8.1 mph - N/A   Mostly Cloudy
8:38 AM 44.6 °F 38.8 °F 41.0 °F 87% 29.99 in 10.0 mi NW 11.5 mph - N/A   Overcast
8:43 AM 44.6 °F 38.8 °F 41.0 °F 87% 30.00 in 10.0 mi WNW 11.5 mph - N/A Rain Light Rain
8:48 AM 44.6 °F 37.2 °F 42.8 °F 93% 30.00 in 10.0 mi NW 17.3 mph 23.0 mph N/A Rain Light Rain
8:58 AM 44.1 °F 35.0 °F 42.6 °F 95% 30.01 in 10.0 mi NNW 24.2 mph 31.1 mph 0.00 in   Overcast
9:18 AM 42.8 °F 34.5 °F 41.0 °F 93% 30.00 in 10.0 mi NNW 18.4 mph 26.5 mph N/A   Scattered Clouds
9:43 AM 44.6 °F 38.1 °F 39.2 °F 81% 30.00 in 10.0 mi NNW 13.8 mph - N/A   Mostly Cloudy
9:58 AM 46.0 °F 39.9 °F 38.3 °F 74% 30.00 in 10.0 mi NNW 13.8 mph - N/A   Mostly Cloudy
10:53 AM 50.0 °F - 35.6 °F 58% 29.98 in 10.0 mi NW 17.3 mph 23.0 mph N/A   Scattered Clouds
10:58 AM 49.3 °F - 35.2 °F 58% 29.98 in 10.0 mi WNW 16.1 mph 23.0 mph N/A   Scattered Clouds
11:58 AM 50.4 °F - 32.4 °F 50% 29.97 in 10.0 mi NW 17.3 mph 25.3 mph N/A   Scattered Clouds
12:58 PM 51.6 °F - 29.3 °F 42% 29.96 in 10.0 mi WNW 16.1 mph - N/A   Overcast
1:58 PM 52.5 °F - 27.3 °F 38% 29.96 in 10.0 mi WNW 18.4 mph 24.2 mph N/A   Overcast
2:58 PM 51.1 °F - 29.5 °F 43% 29.96 in 10.0 mi WNW 21.9 mph - N/A   Overcast
3:08 PM 50.0 °F - 32.0 °F 50% 29.96 in 10.0 mi WNW 23.0 mph - N/A   Mostly Cloudy
3:13 PM 50.0 °F - 32.0 °F 50% 29.96 in 10.0 mi WNW 21.9 mph - N/A   Overcast
3:58 PM 53.1 °F - 26.8 °F 36% 29.95 in 10.0 mi NW 18.4 mph 25.3 mph N/A   Mostly Cloudy
4:58 PM 55.0 °F - 28.0 °F 35% 29.95 in 10.0 mi WNW 21.9 mph 29.9 mph N/A   Scattered Clouds
5:58 PM 54.7 °F - 25.5 °F 32% 29.94 in 10.0 mi NW 25.3 mph 35.7 mph N/A   Clear
6:58 PM 52.2 °F - 27.5 °F 39% 29.97 in 10.0 mi NW 24.2 mph 32.2 mph N/A   Clear
7:58 PM 49.1 °F - 30.2 °F 48% 29.98 in 10.0 mi NW 19.6 mph - N/A   Clear
8:58 PM 46.0 °F 38.8 °F 30.9 °F 56% 30.00 in 10.0 mi WNW 18.4 mph - N/A   Partly Cloudy
9:58 PM 43.9 °F 36.2 °F 33.3 °F 66% 30.00 in 10.0 mi West 17.3 mph - N/A   Clear
10:58 PM 43.3 °F 35.8 °F 34.3 °F 71% 30.00 in 10.0 mi WNW 16.1 mph - N/A   Clear
11:58 PM 43.0 °F 35.4 °F 32.7 °F 67% 30.00 in 10.0 mi WNW 16.1 mph - N/A   Clear